Theta_e
316 315 315 314 314 312 312 312 311 310 308 324 322 324 321 313 311 320 325 323 321 314 307 309 307 304 305 308 307 308 307 306 307 306 307 305 307 306 305 304 304 304 305 303 303 303 301 302 300 302 303 303 305 307 308 308 306 306 306 306 309 313 304 300 302 305 306 307 309 309 309 310 308 309 309 308 305 306 304 304 306 305 306 304 306 303 310
316 315 315 314 313 312 312 312 311 311 308 315 320 325 315 315 313 317 324 323 320 312 302 302 303 304 306 306 305 308 307 307 306 306 307 306 305 305 305 306 307 304 307 305 302 305 298 302 302 301 304 303 307 307 308 309 308 308 307 305 310 302 307 303 298 298 301 302 306 306 309 309 306 306 308 309 310 310 309 309 311 304 305 307 304 298 307
316 315 315 314 313 312 312 311 311 311 310 311 319 321 319 314 314 315 315 320 316 307 308 306 304 304 303 303 303 304 305 306 307 307 306 308 307 306 304 306 307 306 307 305 305 305 303 300 303 304 304 304 308 307 307 309 309 312 314 318 315 306 304 303 296 293 291 292 293 296 300 303 306 307 306 309 308 308 307 302 305 299 307 308 304 304 318
316 315 315 314 313 312 312 312 311 311 310 307 319 324 318 310 305 309 311 314 312 311 312 309 306 304 304 302 303 304 302 305 307 308 307 309 308 308 307 307 308 305 305 303 302 302 305 302 302 304 302 304 306 307 307 307 308 314 316 314 313 307 308 308 304 300 298 301 303 303 307 305 302 305 307 307 308 311 310 308 304 300 306 307 309 309 316
316 316 315 314 313 312 312 311 311 311 309 307 319 324 321 314 308 307 303 310 310 309 309 307 307 304 307 303 303 301 302 304 305 308 304 308 307 307 307 305 304 303 303 301 302 303 302 305 304 303 303 304 305 307 307 307 310 313 314 310 310 308 303 304 305 304 303 303 302 304 306 304 304 304 305 307 308 309 309 305 303 311 305 302 312 317 311
317 317 315 314 313 313 313 312 311 309 308 305 318 320 318 307 313 314 316 307 302 305 305 308 306 306 306 304 305 302 302 302 301 305 307 308 308 304 306 306 305 305 304 304 301 303 303 304 301 304 304 304 305 305 306 306 313 312 308 310 309 305 300 303 304 302 303 304 304 305 305 305 305 305 305 306 308 308 306 306 310 312 306 304 315 319 313
318 317 316 315 313 313 313 312 310 309 308 309 326 320 318 319 317 317 319 310 309 312 310 309 306 306 306 305 304 302 302 301 303 304 304 305 305 306 302 302 305 305 307 306 303 306 300 300 305 305 303 303 304 302 304 306 308 307 307 308 311 308 302 305 305 303 303 304 304 304 304 304 305 305 306 306 307 309 309 309 311 313 316 314 313 318 317
318 317 316 315 314 314 314 312 310 309 307 316 326 322 318 315 313 310 316 315 311 310 308 308 306 305 309 304 304 303 302 301 304 305 305 302 303 307 303 303 305 306 306 308 304 305 306 305 302 305 305 304 306 303 304 304 307 307 304 306 310 307 303 305 304 302 301 303 304 305 304 303 303 305 306 306 308 309 309 310 312 311 312 315 313 317 320
318 317 316 315 314 314 314 312 311 310 309 328 324 321 323 322 324 323 314 308 310 309 307 306 306 304 305 304 304 304 303 303 305 303 306 305 303 305 303 305 305 306 306 306 304 306 307 307 306 306 306 303 304 304 304 306 304 305 305 306 306 305 303 304 304 299 299 302 302 303 303 303 303 303 305 306 305 306 309 311 314 312 313 315 316 315 317
318 318 316 315 314 314 313 312 311 309 310 324 323 318 327 327 325 326 321 307 311 308 307 308 305 302 306 306 305 304 303 305 305 302 305 306 306 306 306 306 306 305 305 304 305 307 307 307 308 308 308 308 307 307 306 306 305 305 305 307 304 305 303 301 300 297 297 302 302 302 302 301 299 302 305 309 309 309 311 315 317 318 317 312 310 315 321
318 318 316 315 315 315 314 313 312 309 318 320 321 317 321 321 322 324 319 308 307 308 307 305 305 307 306 308 306 306 304 305 306 303 302 305 305 307 306 305 305 305 305 306 309 310 309 309 309 310 309 308 307 307 307 306 307 307 306 305 305 307 304 302 303 297 298 300 301 302 300 293 294 307 313 313 310 311 310 309 312 317 319 317 319 320 324
319 318 316 315 315 314 314 313 312 310 311 322 323 321 320 324 325 324 317 306 305 308 307 304 306 305 306 306 306 304 304 304 305 309 304 304 306 307 307 306 307 303 308 312 312 311 311 310 310 309 308 308 307 307 307 306 306 309 307 305 304 304 304 302 304 298 296 300 300 296 291 294 305 310 311 313 314 312 312 317 316 317 320 320 319 321 323
319 318 317 315 314 314 314 313 312 311 310 316 323 321 323 326 323 321 316 312 305 305 305 306 308 307 307 306 305 306 307 307 308 308 307 307 306 307 307 307 306 307 312 310 310 309 305 304 305 305 305 306 306 306 306 305 305 306 307 308 306 304 303 304 301 301 300 297 296 288 292 303 307 308 309 311 313 312 312 312 316 318 318 319 319 322 324
319 318 317 316 314 314 314 314 313 312 310 311 321 324 326 327 322 324 320 312 306 309 309 307 307 306 306 306 308 307 308 307 309 309 306 308 307 307 309 311 312 314 312 311 309 309 304 303 300 298 300 303 303 302 303 305 305 305 305 306 307 306 305 303 299 303 294 296 295 294 302 303 304 305 307 307 304 307 307 307 312 315 319 320 321 323 324
319 318 317 316 314 314 314 313 313 313 312 309 319 325 327 326 324 323 326 321 307 310 312 303 306 308 307 307 307 306 307 307 306 307 310 310 309 309 311 313 316 315 313 311 307 307 306 302 297 295 297 296 293 297 303 301 305 307 306 306 308 308 303 304 298 299 301 296 293 295 294 292 301 307 310 312 311 311 312 310 311 312 314 318 322 321 322
318 318 317 315 314 314 313 314 313 312 312 309 321 325 328 327 328 326 323 320 313 303 309 314 312 309 308 308 309 307 306 306 307 307 307 309 309 311 313 315 316 316 312 308 310 307 304 299 297 295 294 295 300 299 297 302 300 305 307 306 305 306 307 305 300 298 299 297 293 292 291 297 305 306 309 312 314 313 313 309 306 310 312 315 317 320 322
318 318 317 315 314 313 313 314 313 312 312 309 315 322 326 328 326 321 321 321 317 309 313 315 315 312 309 307 308 309 309 307 308 304 304 307 308 309 311 314 317 314 311 309 307 304 300 300 300 300 301 302 298 297 302 299 299 301 305 305 303 303 304 302 300 298 298 297 295 293 297 298 305 308 310 312 313 312 311 299 301 310 313 314 317 318 323
318 318 316 315 313 313 313 313 313 313 312 311 314 319 325 328 329 327 324 319 313 310 314 314 312 309 308 311 309 312 312 310 310 310 307 309 309 310 310 312 310 312 312 308 306 302 301 300 297 297 297 304 305 301 294 300 297 299 300 302 300 302 302 301 298 298 297 293 295 298 301 307 309 309 312 313 314 309 301 295 304 311 313 315 317 318 321
318 317 315 314 313 313 313 313 313 313 312 309 315 321 324 326 328 330 324 317 315 308 313 315 315 313 314 316 314 314 315 316 311 306 307 306 309 311 311 312 313 307 311 307 305 303 300 301 304 301 299 301 304 298 303 298 299 302 303 300 299 300 300 301 300 297 297 297 294 295 301 306 310 312 314 314 309 301 298 307 314 314 315 317 318 319 322
317 317 315 313 313 312 313 313 313 313 312 311 312 319 320 326 328 327 323 316 317 312 314 315 316 312 314 313 311 310 312 311 311 307 305 303 314 312 309 306 312 311 309 308 303 303 302 300 302 303 299 302 303 306 301 302 306 304 303 303 301 302 297 297 298 301 299 299 295 292 288 306 312 312 312 312 305 304 310 313 315 317 317 318 320 322 324
317 317 315 313 312 312 312 312 313 313 313 312 311 318 323 328 328 328 329 324 320 311 310 318 319 316 317 314 314 312 311 309 310 308 312 312 317 313 299 302 307 307 306 307 301 301 304 301 302 303 306 304 305 303 299 302 302 307 307 304 303 306 299 299 301 303 296 297 294 292 304 309 313 311 305 309 310 312 314 314 313 318 319 319 319 322 325
316 317 316 315 313 312 312 312 313 313 312 312 311 319 323 327 328 327 326 328 323 317 317 320 323 319 319 319 319 319 316 314 314 315 313 311 317 312 311 311 312 311 312 312 305 304 305 306 305 302 301 303 305 300 304 297 296 304 307 306 297 310 305 306 299 306 303 301 304 309 312 312 313 313 313 314 315 316 316 317 317 317 318 321 320 322 324
316 317 317 315 313 312 312 312 313 313 312 313 314 322 321 323 326 328 328 327 323 322 322 320 320 319 320 319 321 321 321 321 320 320 320 314 310 314 312 311 311 317 317 315 311 308 308 306 304 307 303 304 303 302 303 301 299 303 302 308 308 309 310 312 310 306 309 310 311 312 313 313 313 314 315 314 315 317 317 317 316 318 319 321 321 322 323
315 316 316 315 313 312 312 312 312 313 313 313 313 319 322 322 324 326 327 323 320 312 315 317 313 311 313 313 317 320 320 320 321 323 325 323 311 309 314 317 317 318 316 318 318 313 311 309 309 307 302 307 305 300 298 297 300 305 303 303 308 310 310 309 304 308 302 297 310 310 310 312 313 313 315 315 316 317 317 317 317 318 320 320 322 322 323
315 316 316 316 314 312 312 312 312 313 314 313 315 320 320 324 326 323 326 313 314 311 305 309 313 316 317 320 321 319 319 323 324 325 322 322 320 313 312 319 323 319 315 318 321 314 312 307 305 304 301 309 309 300 305 300 302 306 300 305 305 305 311 306 306 306 303 304 308 311 312 313 314 314 313 312 314 317 318 317 318 318 321 321 321 323 322
315 316 316 315 314 313 312 312 312 313 314 313 314 320 322 322 325 326 326 325 322 319 307 305 310 317 319 317 316 318 321 322 321 320 319 319 318 319 319 321 321 324 320 320 318 313 309 307 308 306 303 306 310 304 303 308 307 307 303 306 309 309 308 301 307 303 307 308 310 312 313 312 314 313 314 315 315 316 317 317 318 317 317 319 322 322 322
315 315 315 314 313 312 312 312 312 313 313 313 315 321 322 326 326 325 323 323 318 308 310 306 311 315 317 315 319 320 320 320 320 320 319 319 319 320 320 319 318 318 317 314 314 313 309 309 306 305 307 308 312 309 308 306 305 304 303 308 311 307 302 307 304 300 300 301 306 309 303 304 311 312 314 315 316 317 317 317 316 316 316 318 319 320 322
315 315 315 314 312 312 312 312 312 313 313 313 317 321 324 325 324 325 327 326 323 309 307 308 308 314 320 315 319 320 320 320 319 319 319 318 319 318 318 317 317 315 314 313 308 308 306 304 306 309 311 311 308 305 309 311 308 304 303 306 310 305 307 305 301 301 299 308 310 312 312 310 311 312 314 315 316 317 315 315 316 316 317 317 318 317 319
314 315 314 313 311 311 312 312 313 313 313 312 322 323 324 326 327 324 324 326 327 324 315 314 315 312 307 313 320 318 320 320 319 319 318 318 318 318 318 318 317 315 315 312 311 310 308 309 312 308 308 315 308 304 304 301 301 299 305 310 310 313 314 311 310 308 309 311 311 312 310 308 311 313 314 315 317 315 315 316 317 318 317 317 318 319 318
314 315 314 313 312 312 312 313 313 314 313 320 323 323 318 320 326 326 322 324 326 323 313 308 304 311 318 318 315 317 318 319 319 319 318 317 318 319 320 319 317 318 317 313 312 308 309 309 310 312 314 317 309 306 300 302 299 304 310 311 311 312 313 313 314 310 308 313 313 314 313 313 314 314 315 315 316 316 314 315 316 317 318 318 317 318 319
314 314 314 313 313 312 312 313 313 313 314 322 322 315 311 308 321 325 319 324 327 325 318 313 309 315 315 319 320 317 317 318 319 318 318 318 318 318 319 319 317 320 312 311 312 309 312 307 309 310 314 313 311 306 302 300 298 303 308 310 312 311 311 312 314 314 313 313 315 315 314 314 315 315 314 315 315 316 316 316 317 317 318 318 318 318 319
314 313 313 313 312 312 313 314 313 313 319 321 320 316 317 318 321 322 320 321 327 325 318 309 308 309 309 314 319 322 319 319 318 318 318 319 316 318 317 318 314 317 315 311 311 311 309 310 310 310 310 312 310 306 304 301 298 302 310 310 311 312 313 313 313 314 315 315 314 312 310 311 313 311 310 314 315 316 316 316 318 318 318 319 319 318 318
314 313 313 314 313 313 313 313 313 314 321 318 313 312 312 310 310 315 321 328 328 322 321 313 306 309 308 312 318 319 319 318 316 317 314 320 315 317 313 317 315 313 314 313 307 307 311 312 310 307 311 314 308 305 303 301 303 309 311 312 311 312 311 312 313 313 314 313 314 308 307 308 311 313 314 314 314 314 315 315 317 318 317 318 317 317 317
313 313 313 313 313 313 313 313 312 311 312 316 320 321 323 313 319 312 323 329 325 324 322 312 307 306 307 316 310 316 320 313 313 315 311 317 319 317 313 313 314 311 312 310 311 310 309 311 307 308 310 308 309 304 295 303 310 310 311 311 312 312 311 310 311 311 311 311 312 312 312 313 314 315 314 313 313 314 315 316 316 314 314 314 315 316 316
313 313 313 313 313 313 313 312 320 323 321 320 321 324 323 310 310 314 323 327 316 312 312 313 313 306 306 307 306 312 321 315 312 314 311 314 319 315 313 311 309 307 310 316 310 308 307 307 312 304 302 309 302 295 299 305 308 310 310 311 312 311 310 308 308 311 311 311 311 311 312 313 312 310 310 311 311 312 312 313 313 313 312 312 313 315 316
313 313 313 313 312 313 319 316 322 322 319 317 320 321 314 317 318 330 331 331 325 312 308 310 309 305 306 301 302 312 319 313 317 316 316 315 313 316 315 311 305 310 316 310 306 307 305 313 306 301 307 297 295 300 302 308 308 310 310 310 312 311 310 310 309 311 311 311 311 311 311 310 309 309 310 311 311 311 311 311 311 312 311 311 312 314 315
313 313 312 312 316 321 319 318 323 321 320 321 321 320 317 321 329 330 328 326 328 327 315 310 305 305 307 307 312 316 315 307 314 311 312 309 308 313 311 309 305 310 309 306 306 304 310 313 306 302 302 297 298 309 310 311 310 310 311 312 312 313 312 311 312 311 310 310 310 310 309 308 309 309 308 309 309 310 309 309 309 309 309 309 311 311 313
312 311 315 319 320 315 313 317 319 320 318 318 319 321 322 322 315 317 316 314 320 318 317 313 307 312 314 309 305 316 313 309 314 308 309 313 308 308 312 308 309 308 301 303 308 314 311 307 305 301 303 309 311 314 313 312 313 314 314 313 313 314 313 312 312 310 308 306 306 307 307 306 306 308 306 306 306 306 307 308 308 309 309 309 310 311 312
310 318 320 321 318 313 313 319 321 316 320 322 322 317 314 319 314 308 310 313 314 308 315 311 309 312 309 307 311 317 314 309 308 309 304 312 308 303 308 301 309 306 300 302 307 312 302 304 304 302 301 306 308 313 316 315 315 316 316 315 315 314 314 312 312 310 308 307 308 308 306 305 304 304 306 306 306 306 307 306 306 307 307 308 309 310 310
319 318 316 316 316 317 321 319 314 319 322 316 319 316 308 314 309 302 314 305 304 311 312 305 313 313 313 309 309 308 316 310 305 305 305 309 311 303 308 306 309 303 295 298 303 309 300 294 302 299 298 303 305 316 316 315 315 316 316 316 315 315 314 313 312 313 311 310 309 308 308 307 307 305 305 305 305 305 305 306 307 307 307 307 308 308 309
318 320 318 314 317 320 320 321 323 322 317 313 312 313 310 301 310 312 309 304 303 306 313 312 312 310 314 315 313 307 316 317 315 315 311 305 313 310 303 301 309 300 297 297 306 306 303 300 299 296 298 305 309 316 316 314 315 316 316 316 315 314 313 313 312 312 310 309 308 308 308 308 307 307 306 306 306 306 306 307 307 307 308 308 308 308 309
315 314 317 317 318 320 322 321 319 315 314 314 306 298 304 307 311 309 310 301 302 309 310 312 308 310 310 312 313 315 313 321 315 312 308 303 308 305 302 304 305 298 293 305 308 304 301 293 294 296 302 308 317 316 315 314 314 315 315 314 314 313 313 312 311 311 311 310 309 308 308 308 308 308 308 307 307 307 306 307 307 308 308 309 309 309 309
307 310 314 319 318 316 317 307 313 312 299 298 296 295 303 298 304 303 305 310 315 311 313 319 316 317 317 320 314 317 315 317 311 309 307 303 308 307 303 301 301 293 300 308 302 299 295 293 293 299 306 312 315 315 316 315 316 316 314 314 314 314 313 312 311 310 309 309 308 308 308 307 307 308 308 308 307 307 307 307 308 308 308 308 308 308 309
317 317 317 317 313 313 312 295 312 306 296 298 295 292 298 299 302 306 304 307 311 309 313 310 311 310 307 313 311 311 312 313 312 312 307 310 305 302 301 295 298 306 307 301 300 295 296 299 301 304 314 314 313 316 316 316 315 314 312 313 314 313 312 311 310 309 308 308 308 308 308 307 307 307 307 307 307 307 307 307 308 308 309 308 308 308 309
315 313 309 307 301 306 298 291 308 300 293 298 301 302 301 299 303 305 304 312 312 309 314 314 313 311 310 314 315 314 311 309 314 307 302 305 302 303 299 297 304 303 299 296 298 298 298 297 303 306 313 312 312 315 316 316 315 313 312 313 312 311 311 309 309 308 308 307 307 307 306 307 307 306 307 307 308 308 308 307 308 308 308 308 308 308 309
313 304 300 294 289 295 296 293 296 293 303 307 303 305 306 307 309 309 312 314 313 312 311 312 313 313 311 315 310 309 311 312 306 305 308 306 299 297 303 308 305 298 298 298 294 292 295 299 302 304 309 314 314 314 315 315 315 314 312 309 310 310 310 309 309 308 307 306 306 306 306 307 306 306 307 308 308 308 307 308 308 308 308 308 308 308 309
311 311 304 299 293 297 306 294 298 304 307 307 309 311 311 312 313 313 315 315 313 314 314 317 316 314 311 311 309 310 312 310 306 309 308 302 300 302 306 300 295 296 292 291 295 297 299 301 304 309 315 315 315 314 314 314 313 312 311 311 310 309 309 308 307 306 306 306 306 306 306 306 306 307 307 306 306 307 308 308 308 308 307 306 307 307 308
301 307 308 292 290 297 295 302 309 307 308 311 310 312 313 313 311 310 314 315 317 316 314 314 311 311 309 317 312 307 310 309 304 305 304 301 304 300 295 297 297 299 300 297 297 301 302 304 306 313 314 315 315 313 312 312 312 311 311 310 309 308 307 307 306 306 307 306 306 306 306 307 307 306 305 306 306 306 307 307 308 308 307 307 307 307 307
313 302 298 296 302 303 302 307 305 304 307 310 310 311 311 310 310 312 316 317 315 315 317 314 313 312 307 312 308 306 303 308 298 297 304 302 297 292 293 291 295 293 301 302 302 303 303 309 313 314 314 313 313 312 312 311 311 311 309 309 308 307 307 306 306 306 306 306 306 306 306 307 307 306 306 306 305 305 307 307 307 307 306 306 305 306 306
304 302 306 299 301 303 306 308 305 303 307 309 309 308 311 310 310 314 318 315 317 317 315 313 314 308 308 307 298 303 301 306 303 301 301 299 299 300 299 294 297 297 300 304 305 307 309 311 313 312 313 313 312 312 311 310 310 309 308 307 307 307 306 305 305 306 306 307 307 307 307 307 307 306 306 306 306 306 307 307 307 306 306 306 306 305 305
311 306 304 310 304 303 303 299 299 301 303 305 308 309 310 310 311 313 318 319 317 315 311 307 309 307 301 298 296 293 298 307 303 301 300 299 303 301 298 296 300 304 304 308 309 310 312 312 311 312 312 312 312 311 310 310 309 308 307 307 306 306 305 305 305 305 306 307 307 305 306 306 307 307 308 308 306 306 306 306 306 306 305 306 306 306 306
300 296 301 306 308 307 306 307 305 303 304 307 308 311 310 308 312 315 319 317 316 309 305 311 308 303 296 295 299 306 306 301 299 302 299 301 303 299 300 303 305 307 307 306 307 309 310 312 314 313 313 311 311 311 310 310 308 307 306 305 305 305 305 305 306 306 306 307 307 307 306 307 307 307 308 307 306 304 303 303 305 306 306 306 306 306 307
Wind_Speed
19 19 19 20 20 20 20 20 20 21 22 6 6 4 4 5 5 4 2 4 5 6 3 2 2 4 6 3 4 0 1 4 3 3 5 1 3 2 5 6 1 5 3 3 4 0 4 3 3 5 7 8 8 6 6 3 5 7 2 3 4 2 4 5 6 2 1 2 4 3 2 6 10 10 10 11 14 13 13 11 9 10 10 10 8 11 2
19 19 19 19 20 20 19 18 19 18 16 4 6 5 1 2 3 5 3 1 3 6 4 5 5 5 5 4 7 5 7 7 6 6 8 6 5 5 4 5 7 4 3 1 2 2 3 3 2 5 2 5 4 5 6 5 2 3 5 4 4 6 4 6 6 6 7 7 8 6 6 9 10 11 9 6 8 8 8 7 5 9 12 11 11 12 6
19 19 19 19 20 21 20 18 18 18 16 6 3 3 1 3 2 1 3 1 3 4 3 2 5 5 5 4 4 4 4 5 6 7 8 6 6 1 6 5 3 4 2 4 3 3 3 5 4 4 4 6 3 7 7 6 2 4 6 5 4 4 2 4 8 10 10 10 11 11 12 11 4 1 1 5 11 13 11 12 9 7 8 13 11 11 4
19 19 19 19 21 21 21 20 18 18 14 7 4 4 3 6 5 4 4 1 3 4 1 2 3 5 5 4 4 1 5 5 5 4 7 7 6 6 2 1 2 2 2 3 3 3 3 2 4 4 4 3 4 5 5 5 6 4 5 5 5 2 2 2 4 8 4 5 5 5 2 4 10 6 3 3 8 6 9 9 11 11 8 8 10 11 3
18 18 19 19 21 21 22 22 20 19 14 7 3 3 4 1 2 3 4 4 2 3 3 4 4 4 0 1 0 2 2 3 4 7 1 6 5 4 6 4 2 2 1 2 4 2 5 6 5 4 3 4 3 3 4 4 7 3 5 2 4 3 3 0 1 3 4 4 6 6 2 2 2 4 3 3 5 6 10 12 11 6 10 9 6 6 10
18 18 20 20 20 21 22 23 23 19 15 5 3 2 1 4 2 1 4 3 4 6 5 1 3 4 3 3 2 1 2 1 2 4 5 2 4 3 3 5 5 4 3 0 2 3 5 2 4 4 3 4 4 4 3 4 5 4 1 2 4 4 4 1 3 5 4 4 4 3 3 3 2 3 1 2 3 6 11 9 3 4 9 8 2 5 9
17 17 19 20 20 21 22 24 25 23 18 3 4 3 3 3 3 2 1 2 3 3 5 2 4 5 2 4 1 3 1 4 4 5 1 2 4 5 1 4 6 5 2 2 4 2 4 6 4 3 2 3 2 2 5 4 5 2 1 2 3 3 2 3 3 2 4 5 2 2 2 2 2 1 3 1 3 2 3 5 1 1 3 3 4 5 8
17 17 19 20 20 20 22 23 25 25 24 5 2 6 3 2 1 5 2 2 4 4 4 4 5 5 2 2 3 2 1 4 3 2 5 1 3 2 3 5 5 5 4 2 3 6 8 6 4 3 3 4 4 4 5 3 1 3 3 3 2 5 3 2 3 6 3 1 2 3 5 1 3 3 3 2 2 1 1 0 2 2 2 3 2 4 3
16 17 18 19 19 19 20 22 24 27 23 2 5 5 6 3 3 4 2 5 3 3 4 5 4 4 5 2 5 3 4 5 5 6 5 6 4 2 4 4 3 4 6 7 7 5 5 5 6 3 5 4 4 5 4 5 2 2 2 3 2 3 2 4 5 7 8 3 2 1 2 6 2 3 5 7 2 2 5 2 5 4 2 2 1 4 3
16 16 17 19 18 18 19 20 23 25 24 5 5 5 5 3 1 3 4 2 1 3 4 3 5 3 4 2 7 2 6 6 3 5 3 4 5 4 3 2 4 3 2 6 6 5 4 4 4 4 3 2 2 1 3 4 4 3 3 3 2 4 3 6 4 8 8 6 3 3 5 3 8 4 9 9 5 4 1 4 4 5 4 5 4 5 3
16 16 17 18 17 17 20 20 21 23 14 8 6 7 7 6 4 3 4 3 5 3 5 5 4 5 5 5 7 3 7 4 1 4 4 1 5 4 3 1 3 1 4 5 5 5 5 4 2 1 1 1 1 1 1 0 2 4 4 2 2 2 4 2 3 7 6 7 6 7 7 11 1 5 7 7 7 9 7 6 7 6 5 5 3 2 4
15 16 19 18 17 16 17 20 17 17 14 4 4 4 6 5 5 4 3 5 5 4 5 1 1 5 5 7 5 6 6 3 4 1 4 3 5 2 1 3 4 1 5 3 3 2 1 2 3 2 2 1 2 3 1 1 2 0 1 4 2 2 3 2 3 5 6 1 6 10 11 7 5 4 7 7 6 8 7 4 5 6 4 4 3 2 2
16 15 18 19 18 16 15 16 16 15 15 8 5 6 6 4 4 4 3 5 5 7 5 4 3 4 6 7 6 5 5 5 4 5 5 4 5 4 4 4 3 5 5 4 2 3 5 3 3 1 4 4 2 2 2 2 2 1 1 2 5 4 3 2 4 3 3 7 7 10 4 8 3 3 8 12 5 9 8 4 7 10 9 7 6 5 2
16 16 18 18 18 17 16 17 15 16 15 12 5 4 4 6 5 4 3 3 4 1 2 6 6 8 8 8 8 8 7 6 5 2 5 2 3 4 4 4 5 4 4 3 2 4 4 4 5 5 6 6 5 6 4 3 4 2 3 2 2 4 4 4 4 2 7 6 7 4 4 5 5 2 9 10 7 9 8 3 6 11 10 8 6 4 2
15 15 16 18 18 17 17 18 18 17 16 15 5 3 4 5 4 4 3 4 3 4 4 4 7 8 8 8 8 6 5 5 5 5 4 2 1 4 3 3 3 4 2 4 4 4 4 2 5 5 5 7 7 6 5 5 3 2 2 2 0 1 6 5 5 1 3 7 8 7 7 9 4 8 7 7 6 5 4 5 3 12 13 13 8 3 4
15 14 15 17 17 18 18 18 17 17 14 17 5 2 2 5 4 4 4 4 1 7 4 5 4 7 7 6 3 3 3 3 2 3 5 3 1 4 3 1 2 2 2 2 2 3 3 5 3 5 4 4 3 1 6 4 4 3 1 1 1 1 0 3 6 4 4 6 8 8 7 4 7 9 10 9 6 5 2 5 3 9 15 15 12 8 1
16 14 15 17 16 17 18 18 17 15 12 14 6 4 1 5 5 4 4 3 3 4 5 2 2 3 4 5 5 4 1 1 2 3 3 4 3 1 1 1 2 1 1 4 3 4 5 3 2 2 3 2 5 2 4 4 3 4 4 4 1 3 2 4 6 4 3 6 5 7 2 4 8 11 11 10 9 4 5 6 3 10 15 16 13 11 2
16 13 14 15 15 17 17 17 17 15 14 13 8 4 2 3 4 4 4 3 1 5 4 2 1 4 1 3 2 5 2 2 3 1 3 3 2 1 2 3 2 4 3 4 2 4 1 3 3 3 3 3 2 2 4 4 4 1 1 2 2 1 2 2 4 3 4 2 6 3 6 6 11 13 12 10 7 4 6 2 7 14 13 14 13 12 9
15 13 15 15 16 17 17 17 17 17 15 13 10 5 2 3 5 4 4 3 3 4 4 3 1 5 5 3 5 3 3 4 3 4 1 4 3 3 2 1 3 1 1 1 4 2 3 2 1 3 1 5 4 1 3 5 2 3 2 5 5 4 3 2 4 5 4 2 4 3 7 5 9 12 8 12 9 5 2 7 8 11 12 11 12 12 9
16 14 16 15 15 16 17 17 17 16 16 13 9 4 2 3 3 4 5 2 1 6 5 4 2 6 2 1 2 3 4 4 1 5 2 2 3 3 4 5 4 3 3 2 2 1 4 2 2 1 3 3 2 2 3 4 2 2 0 2 4 4 4 2 1 1 4 3 5 3 2 6 12 14 1 15 5 5 6 8 10 9 10 11 10 8 8
17 13 14 16 16 16 16 17 17 16 15 14 11 5 1 2 3 3 3 4 2 6 6 3 3 6 5 7 8 7 5 5 1 3 2 3 3 3 2 2 4 3 2 2 2 3 2 1 3 1 4 3 4 4 1 4 5 3 3 1 2 3 6 2 1 3 6 4 3 2 6 5 9 9 6 6 5 4 6 6 8 9 9 9 9 7 5
17 15 13 13 16 16 16 16 16 15 15 14 13 5 3 4 2 2 3 4 3 4 5 5 4 6 7 7 7 6 6 5 4 4 3 2 1 3 3 1 3 2 2 2 2 3 3 1 0 3 4 4 3 2 2 4 4 6 2 2 4 4 3 4 2 5 3 4 4 3 4 4 5 5 4 3 3 3 5 5 7 8 8 9 7 7 7
17 15 13 12 15 16 16 16 16 14 14 14 11 4 4 5 4 5 4 1 3 4 4 4 4 6 6 8 6 6 5 3 3 1 3 1 4 2 0 0 3 2 0 2 5 4 3 2 0 3 1 0 2 2 4 5 2 4 3 3 4 4 3 2 5 3 3 4 4 3 4 4 5 5 4 4 5 4 5 7 7 7 8 8 8 9 6
16 15 13 12 13 16 16 16 15 13 13 13 10 5 4 4 5 6 3 2 2 7 5 6 6 5 4 7 6 5 4 5 4 3 3 4 2 4 2 2 2 3 2 3 3 3 2 2 3 2 3 3 3 5 4 5 2 3 1 5 4 3 0 3 3 4 3 1 3 3 3 4 5 5 5 5 6 6 6 7 7 7 8 9 8 8 6
16 15 13 13 13 15 15 15 14 13 12 14 11 5 6 3 3 4 3 5 6 7 5 5 3 5 4 2 2 4 6 4 2 2 2 2 5 4 4 5 3 4 5 2 1 2 1 2 3 4 3 3 4 1 4 5 3 1 6 4 5 5 2 5 2 2 5 3 4 2 4 4 5 5 5 6 7 8 7 6 7 7 6 7 8 9 6
15 14 12 12 13 13 15 14 13 12 12 14 11 4 3 4 4 3 4 3 2 2 6 5 6 3 2 3 5 4 5 4 3 6 7 6 6 8 9 5 5 3 4 0 1 1 0 1 1 1 3 3 2 5 2 4 4 1 5 4 5 4 3 3 2 4 2 5 3 2 5 2 0 4 5 6 7 8 8 8 8 9 9 7 7 7 7
14 13 11 11 12 14 14 13 12 11 10 11 7 3 4 2 3 5 4 4 3 5 3 5 6 5 4 7 3 2 2 2 3 6 7 8 8 8 7 6 5 4 2 3 2 1 0 1 2 2 3 4 1 2 1 3 2 2 3 4 2 4 6 2 4 6 7 2 2 4 4 3 2 4 7 7 7 8 8 8 9 9 9 9 8 6 5
13 12 10 11 12 13 13 12 11 11 9 12 6 5 3 2 3 3 3 4 4 2 3 6 7 5 3 7 5 2 2 1 4 5 6 6 6 5 5 4 2 2 2 2 4 2 2 3 3 2 1 3 4 3 0 2 2 4 5 3 0 4 3 3 5 4 2 4 2 4 3 4 3 5 6 7 6 8 8 8 9 9 9 9 8 8 5
12 11 8 10 12 12 12 11 10 10 10 11 3 4 3 2 0 1 3 3 4 4 1 5 6 6 5 4 2 3 2 2 4 5 6 6 6 5 5 5 3 3 2 2 3 1 2 3 2 1 2 4 4 1 3 4 4 3 4 6 2 4 3 3 4 3 1 2 2 1 4 5 5 6 6 5 5 7 8 8 8 9 9 9 7 7 7
11 10 8 7 11 12 12 11 10 9 11 5 4 4 4 4 1 2 4 4 4 4 4 7 8 4 3 2 4 4 5 5 6 6 6 6 5 4 4 2 3 2 2 2 1 1 3 2 3 3 2 1 3 2 4 1 3 4 5 4 4 2 1 1 2 4 3 3 2 2 4 5 5 5 4 3 5 7 7 7 8 8 9 9 8 6 5
10 10 9 7 10 12 11 10 9 10 10 4 4 4 4 4 4 2 5 5 3 4 2 3 3 5 4 2 2 5 6 6 6 7 7 6 5 4 3 2 3 2 2 2 1 4 2 3 2 3 2 2 3 3 3 2 3 3 6 5 3 3 1 1 1 2 3 3 3 4 4 4 3 4 2 3 5 6 6 7 6 6 7 8 7 7 4
10 10 9 9 12 12 12 10 9 9 5 4 4 3 4 4 3 6 6 5 4 4 4 6 5 5 4 4 3 1 3 6 6 5 4 2 4 2 3 2 3 2 3 2 3 3 2 3 0 3 3 3 3 2 3 3 4 2 7 5 4 2 2 2 1 1 1 2 4 5 5 2 3 5 4 5 5 5 6 6 6 6 5 5 4 5 6
10 10 9 11 13 12 13 12 9 7 3 7 11 11 9 7 6 6 4 4 4 1 2 3 4 4 4 5 5 5 5 5 4 4 4 0 3 2 3 2 4 4 2 2 2 1 2 1 1 3 3 1 3 2 4 4 1 4 5 5 4 4 3 1 1 0 1 1 3 4 2 2 3 3 2 3 4 5 6 6 6 5 5 5 5 4 4
9 9 10 13 13 12 12 13 10 5 5 4 3 4 4 4 2 1 6 4 2 1 2 3 4 6 3 4 7 6 6 5 5 4 3 2 1 4 3 3 1 2 2 3 3 2 2 3 3 2 3 4 2 3 3 1 4 5 6 6 5 5 4 4 4 3 2 1 1 3 4 3 2 1 2 3 3 4 4 5 6 6 5 5 5 5 5
8 10 12 14 12 12 13 10 4 5 3 2 2 4 4 4 4 5 4 4 3 4 3 3 3 4 5 5 5 7 6 5 5 4 2 4 2 2 2 3 3 4 4 1 3 2 3 1 2 3 3 3 1 2 4 2 5 6 6 6 7 6 6 6 5 4 4 3 2 2 2 2 1 1 2 2 3 4 4 4 6 6 6 5 6 5 5
10 12 13 13 13 10 5 5 4 3 4 1 3 4 1 4 4 3 3 2 3 2 5 3 4 6 5 5 5 5 5 6 2 3 0 3 4 1 2 2 4 2 2 3 1 3 2 4 3 4 3 2 3 4 1 2 5 7 8 7 8 8 7 5 4 6 5 3 3 2 1 1 1 1 0 0 1 3 3 4 4 5 5 5 6 6 5
10 12 14 14 7 4 4 2 2 1 2 4 4 6 7 6 3 3 3 3 3 2 3 3 6 5 5 1 3 4 6 6 5 5 5 4 2 2 4 4 2 3 4 4 4 4 3 1 4 5 4 4 2 1 2 3 5 6 8 7 7 7 6 4 6 6 6 6 5 3 2 1 1 1 2 2 2 2 3 3 4 4 5 5 5 5 6
9 9 6 5 5 5 4 4 2 3 4 5 5 4 4 5 2 3 3 4 1 2 2 3 5 2 1 5 3 6 5 2 4 5 4 2 3 3 2 3 2 1 3 2 3 3 2 3 4 6 6 5 5 4 5 5 4 5 5 6 7 7 6 6 7 7 6 6 6 5 3 2 1 0 2 2 3 3 3 3 3 3 4 4 4 5 5
5 3 4 5 3 3 1 4 3 3 4 2 4 3 2 1 2 3 3 1 2 5 3 4 4 3 4 5 3 4 3 2 6 5 5 5 4 3 3 4 3 3 1 4 4 3 5 4 4 4 6 4 6 7 7 6 6 6 6 7 7 7 7 7 7 7 6 3 3 3 1 1 2 2 2 3 3 3 3 3 3 4 4 4 4 5 5
3 5 5 4 2 3 3 4 5 3 3 3 2 3 2 2 3 2 2 2 3 2 2 5 2 3 4 4 5 6 3 5 5 6 4 3 0 3 2 2 3 3 4 5 3 4 4 3 2 2 6 4 4 5 6 8 8 7 7 8 8 8 8 7 7 4 3 3 3 3 2 1 1 3 3 3 4 5 4 4 4 4 5 4 4 5 5
3 3 3 2 4 1 1 1 2 3 3 3 3 1 0 2 2 0 2 5 4 3 2 1 3 4 4 3 4 4 4 2 2 2 3 2 2 2 4 3 2 4 4 4 4 3 3 4 3 4 5 1 3 5 6 8 8 9 8 8 8 8 8 7 7 5 4 4 3 3 2 1 3 3 4 5 5 5 5 6 6 6 7 7 6 6 5
4 4 3 2 1 1 2 3 2 2 1 1 1 1 2 0 1 3 3 4 4 3 5 4 5 4 5 6 3 2 4 1 1 2 4 4 4 4 3 1 3 4 3 3 3 3 3 3 3 5 4 4 6 6 7 8 9 10 10 10 9 8 8 7 6 5 3 3 2 2 2 2 2 3 3 4 5 5 6 6 7 7 8 8 7 7 7
5 6 4 2 3 3 2 1 1 2 0 1 1 0 2 2 3 3 4 3 1 2 3 1 2 3 3 1 3 2 2 2 4 4 5 2 3 3 4 3 3 4 2 3 3 4 4 3 3 6 2 5 6 6 7 8 9 9 10 9 9 8 8 7 6 5 4 3 3 2 2 2 3 3 3 5 5 6 6 7 7 7 7 7 8 8 8
1 3 4 3 2 2 2 1 2 1 1 1 2 2 5 5 5 4 3 3 3 3 4 5 5 6 4 4 2 4 4 3 3 3 2 2 3 4 4 3 6 2 2 5 5 5 6 6 7 4 4 5 4 6 7 8 9 9 9 9 9 8 7 6 6 6 5 3 3 2 2 3 3 3 3 3 4 6 6 6 7 7 8 8 8 8 8
4 3 1 2 0 1 0 1 2 2 3 3 3 3 3 3 4 5 1 3 1 2 3 2 3 5 3 4 2 3 3 3 4 5 4 4 6 4 5 4 2 3 4 7 6 6 4 6 4 4 4 5 6 8 8 9 10 10 10 10 9 9 8 7 6 5 4 3 3 3 2 1 1 2 2 4 4 5 6 6 6 7 7 7 8 8 8
4 2 2 2 1 1 1 0 1 2 3 2 3 2 1 2 1 2 3 1 1 2 3 3 3 3 3 4 4 2 4 4 5 5 4 3 5 6 3 1 1 7 6 6 6 6 6 6 3 2 3 5 8 8 9 9 9 9 10 10 9 9 7 6 5 4 3 3 2 2 2 2 2 2 3 4 5 6 6 7 7 7 7 8 8 8 8
1 1 1 1 1 1 2 2 4 2 1 3 1 1 1 2 2 2 2 1 1 1 1 0 1 1 2 5 5 3 4 2 5 3 3 6 5 2 0 6 7 6 5 6 8 7 5 3 2 2 4 7 8 9 10 10 10 10 9 9 9 8 7 6 5 4 3 3 3 2 2 2 2 3 5 6 6 6 7 7 8 8 8 9 9 9 9
0 1 2 2 2 2 3 4 1 0 2 1 2 1 2 1 1 3 3 2 1 1 2 3 4 4 5 3 1 3 5 5 4 3 3 2 1 4 2 5 6 6 6 7 8 4 4 3 1 4 4 7 9 10 10 10 10 11 10 9 9 8 7 6 4 3 4 3 2 2 3 3 4 5 6 6 7 7 6 7 7 8 9 9 10 10 10
2 0 1 1 1 2 2 2 2 4 3 3 2 2 2 3 3 1 2 2 2 2 2 4 2 0 4 1 4 5 6 5 5 3 3 5 5 5 5 4 7 7 7 7 5 4 3 2 4 5 6 8 8 8 9 9 10 10 9 9 8 7 6 5 4 4 3 2 2 3 3 4 5 5 6 6 7 7 7 7 8 8 8 9 9 10 10
1 1 1 2 4 4 1 0 3 4 4 4 4 4 3 3 3 1 2 3 2 3 3 2 1 4 2 2 3 5 3 3 4 2 6 8 6 5 7 10 7 7 6 5 4 3 1 4 5 6 7 8 9 9 10 10 9 8 8 8 7 6 5 5 5 4 3 2 3 3 4 4 4 4 4 5 6 7 8 8 8 8 8 8 9 10 10
0 2 3 3 5 2 2 4 3 4 5 6 5 3 3 4 3 3 2 2 3 4 4 5 2 3 2 2 1 3 2 3 4 8 7 7 5 8 10 10 8 5 6 3 0 1 3 4 5 6 8 8 9 9 9 10 9 8 7 7 6 6 5 5 4 3 3 3 3 3 4 4 3 4 4 5 6 8 9 8 7 8 9 10 10 10 9
1 2 3 2 4 5 5 4 4 5 4 3 1 1 1 3 2 2 2 4 4 4 4 3 1 1 1 3 4 2 0 2 4 6 9 8 5 9 7 7 7 2 4 3 2 2 3 3 4 7 8 9 10 10 10 9 9 8 7 6 7 6 6 5 3 2 2 3 3 3 3 3 4 4 4 6 7 7 7 8 8 9 9 9 10 11 11
Wind_Direction
346 346 346 345 344 345 345 348 350 354 343 335 0 302 221 232 56 66 3 347 280 265 117 129 160 89 83 156 106 59 93 14 35 7 1 66 354 67 43 21 38 62 20 98 111 15 97 344 72 95 98 73 37 20 357 337 256 258 149 190 110 272 233 232 257 252 291 136 103 173 249 219 222 223 245 217 215 211 230 230 232 231 215 221 226 242 183
345 345 347 345 344 344 346 348 353 354 7 334 305 267 202 58 119 131 100 284 286 263 185 159 117 112 120 106 91 65 50 26 50 42 43 15 34 35 51 96 38 63 8 76 99 354 160 66 141 133 71 91 29 22 13 339 300 316 20 314 89 249 149 277 226 224 178 164 172 171 180 215 229 223 193 279 278 253 259 280 284 253 224 226 228 237 192
345 346 347 346 344 344 344 349 349 354 355 339 296 314 28 132 94 132 99 225 263 268 42 163 137 133 138 130 116 138 101 38 22 21 46 26 26 314 63 25 5 76 62 94 93 56 339 131 42 66 87 88 55 56 12 3 11 9 22 322 315 253 281 260 230 216 210 191 189 192 185 194 150 202 220 228 247 236 223 227 213 240 239 228 230 238 105
346 347 348 347 345 344 344 347 350 351 356 332 254 304 244 197 187 139 150 150 130 72 335 305 144 137 150 136 85 348 109 116 66 335 71 27 56 46 54 89 317 66 170 116 105 104 66 228 141 210 133 107 84 27 21 24 18 21 357 302 266 247 195 314 282 271 296 32 33 42 7 184 206 135 209 181 220 240 250 256 248 228 221 230 228 251 167
347 349 349 348 347 345 345 346 348 352 352 338 290 272 291 298 248 164 157 151 114 119 162 153 188 148 175 130 26 121 53 91 104 1 44 38 26 59 28 25 265 56 247 102 94 59 114 100 131 75 123 90 82 66 19 50 41 331 242 241 274 230 211 98 1 59 64 59 48 64 16 163 106 192 164 161 191 220 231 227 243 253 257 248 237 203 239
348 350 352 350 348 348 348 347 346 350 354 306 258 269 323 226 98 312 7 302 147 173 140 170 129 110 220 79 249 126 159 156 90 114 65 53 24 308 99 53 57 41 32 248 140 109 98 103 105 140 90 210 161 171 65 40 32 280 77 257 281 276 219 98 270 89 75 47 78 95 93 71 87 92 114 175 175 203 229 237 282 328 244 260 41 230 237
349 351 353 353 350 350 352 350 346 345 349 289 275 276 93 333 89 44 327 245 63 26 78 190 143 138 80 114 193 147 126 97 44 0 52 36 53 335 87 55 52 58 54 340 104 19 215 122 76 22 62 29 287 203 185 88 8 358 56 53 10 289 207 358 291 160 85 87 103 201 147 154 159 94 73 116 200 190 209 214 186 226 26 325 231 221 226
351 354 355 355 353 354 356 354 350 344 341 290 303 30 303 105 256 144 185 124 110 118 160 164 172 140 138 196 89 56 123 106 124 67 340 196 88 31 88 77 53 56 66 93 99 66 36 52 105 64 330 156 6 66 14 358 8 2 39 327 93 275 129 311 269 223 156 54 141 206 221 249 182 93 59 63 212 114 59 36 72 280 207 12 286 208 198
353 355 357 357 355 357 360 359 357 344 344 23 20 57 15 7 357 332 244 160 98 149 161 177 182 158 175 153 142 157 105 92 73 79 31 11 52 44 81 65 96 56 80 80 83 65 59 50 58 35 1 16 36 324 81 336 356 4 41 6 11 289 214 220 245 238 197 186 288 170 263 232 190 86 26 3 307 323 26 6 22 320 351 3 282 222 174
353 356 359 358 358 1 2 5 1 354 330 4 2 36 355 287 177 238 293 210 142 202 146 155 206 192 75 67 137 164 121 117 154 113 54 53 35 25 348 26 299 132 99 70 50 34 11 21 23 11 7 336 326 317 335 342 344 343 49 351 7 352 270 230 243 242 225 193 276 249 248 258 230 114 19 356 30 357 65 82 42 19 334 268 271 38 337
352 357 360 359 360 2 6 7 7 3 351 32 9 26 4 357 355 292 259 210 167 196 188 169 253 60 129 139 136 149 130 130 81 311 110 185 74 29 7 339 295 21 56 30 11 339 339 348 354 265 230 301 313 29 126 109 0 348 344 289 59 335 335 252 336 250 237 218 253 265 238 234 157 26 17 4 9 2 347 39 32 36 346 18 350 350 22
353 357 1 0 360 2 6 8 6 14 5 351 309 6 11 320 274 269 279 221 153 169 221 146 75 143 177 142 151 146 146 154 120 258 110 86 85 65 66 89 276 161 41 337 312 331 249 197 194 202 255 162 142 142 149 76 99 290 314 324 332 332 310 337 321 262 248 253 248 240 240 232 87 37 28 1 346 3 346 14 45 36 35 357 331 353 304
352 358 0 360 359 0 5 8 6 7 9 342 310 11 1 343 300 327 314 274 164 182 198 130 134 148 140 146 133 105 94 109 110 89 101 124 122 106 46 37 13 22 337 318 284 235 228 192 170 224 182 181 191 165 105 86 51 76 27 351 310 307 278 352 256 281 268 246 223 235 216 99 144 56 24 5 345 6 326 183 39 21 6 353 336 9 335
351 358 359 358 358 358 2 5 3 2 2 350 312 3 354 347 332 302 321 272 153 145 91 125 155 147 154 139 129 129 140 125 109 109 114 90 93 92 100 39 27 346 332 286 250 226 199 202 199 193 181 206 199 221 128 96 64 47 56 31 320 319 293 261 266 130 272 251 252 213 146 163 57 31 15 12 1 344 355 347 59 18 6 2 349 6 352
350 359 359 358 357 358 0 2 360 357 359 346 295 302 6 358 328 309 302 285 172 134 206 214 145 145 136 134 147 155 159 145 177 122 89 133 167 61 47 46 8 356 297 264 197 208 264 211 207 204 161 202 209 195 159 188 121 74 53 74 314 41 299 46 294 240 281 264 247 223 210 224 101 43 15 7 358 318 302 278 129 31 9 350 338 348 352
350 357 359 359 357 356 357 358 359 354 2 345 303 317 23 2 303 273 298 306 201 179 123 47 96 148 144 145 162 266 141 197 90 141 167 153 109 152 131 17 31 309 251 250 301 259 205 233 215 231 198 191 72 114 195 163 178 134 158 170 150 149 173 252 273 263 231 243 249 245 239 52 20 4 355 354 350 330 257 249 179 34 360 345 340 327 337
346 352 357 358 355 355 355 355 355 355 356 3 336 307 5 14 342 325 304 254 272 55 75 67 85 126 137 140 175 180 213 234 170 232 184 151 101 12 146 15 175 309 300 251 197 222 194 217 259 293 82 21 208 229 87 225 196 168 167 216 248 254 238 262 229 244 246 277 252 247 321 107 9 349 346 345 343 302 243 240 145 11 354 336 327 324 277
342 360 360 357 354 353 354 353 352 354 352 354 328 299 342 20 336 306 262 293 216 108 77 51 215 206 144 28 87 73 159 155 201 204 286 90 217 188 31 326 233 135 277 259 206 224 227 218 204 214 128 78 355 231 241 102 217 153 177 333 264 194 229 253 295 285 109 244 257 236 125 79 2 346 338 335 340 332 249 251 351 339 333 323 320 310 297
343 358 358 357 352 352 352 351 350 350 350 351 326 246 229 357 337 305 287 277 256 137 81 61 341 46 68 70 59 73 18 358 352 268 155 202 122 64 326 79 313 212 231 239 230 243 218 116 297 292 197 145 218 290 101 219 127 108 201 206 205 213 257 225 257 254 273 335 275 240 77 36 333 338 340 343 282 233 328 4 328 317 315 318 311 298 298
339 351 354 351 351 351 350 350 348 348 347 352 342 309 354 358 1 338 330 356 41 107 115 84 349 91 46 9 135 156 155 193 201 293 266 324 107 233 224 201 166 249 172 233 212 23 275 152 88 204 248 148 123 24 223 88 16 14 349 346 300 25 285 277 248 41 253 227 253 263 223 57 4 333 276 17 1 33 336 320 314 320 322 324 322 303 295
338 346 354 349 348 348 349 347 346 345 346 346 337 304 266 115 348 356 305 315 296 136 107 89 80 74 53 60 44 34 6 13 42 289 59 24 33 279 252 43 55 316 33 306 312 126 314 145 170 253 12 337 111 229 269 121 140 108 303 314 345 28 264 264 137 7 297 253 274 11 34 11 20 13 43 30 29 334 329 312 322 332 329 342 325 320 312
337 341 349 355 347 346 347 346 344 343 343 344 330 282 278 50 13 360 325 280 331 43 67 72 23 68 65 50 46 32 25 22 28 339 284 129 98 325 15 108 35 344 34 298 194 164 199 38 83 215 185 148 191 282 56 241 214 115 139 255 213 53 344 347 338 46 320 9 57 94 57 31 39 50 65 52 5 343 321 318 318 333 346 344 325 337 324
334 337 345 354 347 343 345 344 343 342 342 346 337 314 344 340 352 338 276 244 104 95 127 130 132 114 110 78 60 46 47 27 3 57 334 309 133 204 241 273 119 41 103 305 334 356 45 245 106 0 221 237 320 147 192 275 329 154 187 73 35 89 11 331 278 109 107 83 37 114 104 49 52 69 68 45 23 17 340 349 345 357 350 342 347 328 332
331 334 340 349 346 342 342 342 340 340 339 343 333 315 336 346 331 320 229 260 210 124 122 139 178 128 90 85 68 71 58 48 12 353 336 310 279 134 143 64 86 176 86 23 331 329 45 350 30 287 267 76 269 243 241 205 207 67 207 169 147 95 268 253 259 87 240 162 108 82 98 81 47 42 45 43 36 17 1 358 353 350 358 354 359 347 343
328 331 337 342 345 340 341 340 337 335 341 344 329 273 253 275 4 335 300 175 165 179 149 149 66 63 63 76 111 78 40 354 298 291 248 243 306 325 87 76 10 350 100 83 234 214 224 231 170 211 224 89 289 285 63 291 131 171 260 130 178 152 346 263 255 230 264 72 104 86 119 85 53 32 19 20 20 11 11 7 358 356 2 7 7 347 13
327 331 337 342 345 342 339 337 333 332 338 343 328 325 339 7 333 287 269 307 336 277 178 155 117 121 165 151 61 21 332 336 74 81 68 61 54 82 112 123 104 48 88 83 271 291 109 198 310 355 289 116 295 299 55 15 31 57 292 41 31 58 234 240 53 263 108 123 117 81 159 206 167 47 27 17 7 355 3 4 1 10 12 11 16 26 15
327 330 336 344 347 338 335 336 332 328 332 338 322 291 294 337 350 351 1 347 224 160 234 152 139 123 108 83 49 48 20 344 97 85 85 82 93 104 107 112 117 139 142 111 46 33 15 359 288 75 2 60 301 7 345 201 252 233 230 113 194 224 235 70 246 245 241 262 82 6 261 223 131 16 360 350 356 344 349 356 3 7 10 11 8 10 32
326 329 339 342 336 333 333 333 331 327 330 326 294 268 276 308 32 358 340 336 311 299 183 146 170 126 110 90 46 58 84 148 96 92 91 93 89 88 93 97 105 120 124 208 170 178 219 228 92 63 101 110 235 164 259 35 260 246 250 139 212 274 339 276 270 293 333 63 48 31 327 288 0 348 342 333 351 341 334 351 354 358 6 6 15 7 8
325 330 334 337 330 327 330 328 328 326 329 311 262 255 227 227 246 32 350 333 294 291 134 96 102 166 179 80 57 107 95 132 115 102 98 92 86 80 73 58 52 63 99 62 41 60 36 62 27 346 50 27 299 147 195 218 214 249 88 96 101 46 16 350 3 333 197 63 42 356 312 312 320 326 328 327 341 329 330 334 342 344 356 0 9 18 7
324 327 322 332 326 322 324 325 323 325 325 299 232 235 204 140 103 33 11 331 322 307 203 169 179 119 105 142 95 105 122 119 110 106 97 91 82 73 66 81 82 29 22 16 328 105 77 90 97 93 88 339 288 13 259 300 268 101 112 111 96 128 105 355 342 307 334 15 338 325 299 301 311 310 321 323 345 334 327 325 336 331 342 347 355 10 15
321 321 316 310 318 319 315 319 320 321 304 263 252 210 198 165 91 64 11 328 322 295 275 222 140 122 136 70 146 122 130 125 115 102 87 83 79 83 90 104 73 294 156 129 123 85 203 142 152 103 119 33 315 266 301 283 255 138 140 140 141 155 190 92 325 296 314 313 310 298 273 265 290 283 245 351 345 335 327 322 332 322 339 329 351 348 8
319 318 312 309 317 314 309 310 317 315 284 281 311 355 28 18 12 334 327 297 295 254 217 151 141 179 147 155 136 193 131 133 129 123 111 148 108 97 79 347 81 18 11 81 104 176 85 61 306 138 204 88 268 280 270 265 281 65 133 155 157 144 139 178 190 204 277 294 289 261 238 209 40 358 355 358 350 342 329 332 325 334 313 311 340 6 2
315 317 312 313 315 311 307 306 303 296 293 327 306 271 270 274 291 285 275 285 250 292 299 228 183 157 183 119 135 173 172 175 166 172 128 302 131 190 122 134 125 114 37 246 137 43 81 231 153 183 93 194 248 254 264 264 340 104 147 144 161 155 169 150 236 197 258 296 305 316 346 31 52 49 4 2 3 349 339 339 335 312 334 329 330 348 10
309 317 313 313 310 308 306 306 294 272 251 264 184 110 88 15 258 14 321 283 300 332 263 230 180 196 150 133 204 153 200 208 174 198 171 134 114 241 132 180 168 221 89 313 97 171 139 239 223 92 155 195 236 271 262 252 119 154 156 160 155 168 179 178 192 184 164 124 61 43 57 71 106 130 55 45 23 21 7 5 346 342 340 345 353 353 340
312 311 312 309 307 310 304 291 241 214 207 183 105 81 39 25 342 291 289 315 219 170 203 198 262 194 170 182 216 158 184 223 198 193 235 123 238 252 165 232 166 244 117 259 205 252 183 153 53 231 202 110 211 231 248 196 163 169 174 174 172 178 174 188 191 180 161 146 150 121 126 161 166 92 56 39 36 16 14 19 13 358 356 354 350 341 341
314 312 305 306 306 294 269 225 238 214 183 167 68 87 142 271 241 260 308 301 314 261 207 179 198 214 206 211 201 143 178 211 173 148 92 138 172 163 260 282 224 98 84 243 238 187 225 126 227 231 119 204 226 231 209 206 190 186 190 191 180 186 189 213 180 171 163 159 146 138 165 175 82 74 17 32 37 17 5 8 12 7 6 359 355 346 339
311 308 303 289 267 208 216 157 119 352 40 14 354 324 294 270 221 231 214 228 171 305 278 197 218 212 221 214 81 127 191 199 175 197 167 210 218 166 210 219 273 107 204 206 213 222 109 109 269 264 219 236 252 166 199 186 205 196 198 195 183 190 201 197 173 177 165 169 177 190 202 242 192 299 308 334 351 336 339 356 357 348 345 345 346 347 346
321 308 282 224 205 204 165 157 108 37 332 268 261 242 182 221 188 158 180 202 105 280 212 242 243 114 111 244 182 122 206 169 164 213 186 176 200 182 210 261 62 228 244 221 110 61 126 209 232 262 269 254 260 219 199 193 198 196 193 187 182 187 185 177 173 186 194 186 198 196 207 218 259 290 322 338 337 333 342 337 329 336 326 323 330 330 328
267 238 227 224 225 210 114 97 55 6 282 203 237 243 162 213 198 186 168 175 188 208 172 246 221 187 207 206 122 152 285 209 194 209 220 153 246 183 192 239 138 245 246 242 148 197 236 213 218 240 262 249 241 225 209 194 186 186 182 182 176 178 174 176 183 198 221 258 356 63 338 317 314 322 321 301 319 316 320 317 328 336 332 318 323 322 319
202 213 202 197 199 76 74 135 155 241 218 226 183 260 156 172 237 167 145 203 206 175 176 211 165 204 232 241 181 173 165 240 215 213 191 141 164 286 124 259 110 250 253 261 127 180 265 272 247 256 268 216 203 135 161 177 178 175 173 176 174 176 176 180 179 186 187 153 157 156 169 191 302 302 308 305 308 308 306 308 313 313 309 313 314 302 308
203 229 215 177 72 55 54 328 220 229 220 202 169 194 174 182 212 144 203 213 215 151 212 227 166 201 186 222 240 206 127 288 50 339 268 184 103 262 220 238 100 266 258 255 118 215 228 253 258 251 268 143 152 147 158 166 175 169 168 171 173 173 177 183 184 177 179 170 169 171 194 248 283 288 299 304 298 294 295 297 296 295 297 298 295 295 305
10 337 7 342 312 316 240 207 236 211 162 281 266 192 225 205 140 207 236 229 174 161 169 196 194 203 169 195 207 117 132 318 318 231 227 208 148 243 267 140 187 252 258 71 118 213 236 247 240 249 235 185 135 145 164 169 170 172 174 180 182 186 189 190 188 182 187 186 180 192 199 231 259 271 283 291 295 294 294 292 287 286 286 289 292 284 278
255 250 266 228 184 188 224 216 98 291 174 179 163 69 216 206 209 220 180 200 99 249 117 243 59 57 54 275 115 2 61 151 228 178 236 192 122 238 233 219 213 235 221 116 225 220 218 230 246 258 142 143 151 162 170 172 166 171 174 178 182 186 190 188 192 172 173 180 189 195 209 248 270 285 291 287 285 286 284 283 285 284 283 284 286 286 286
192 234 218 184 186 126 236 225 190 135 30 248 202 195 190 201 175 184 214 170 162 191 160 193 175 212 154 177 224 140 160 171 247 230 210 128 215 206 227 224 230 63 84 230 229 241 244 248 258 282 109 131 143 160 161 163 165 167 174 178 179 181 184 173 164 161 169 173 194 210 234 260 273 277 271 283 292 296 297 294 291 288 287 283 280 278 282
203 180 205 173 178 125 87 315 232 200 229 178 237 257 200 232 164 209 157 103 217 109 145 210 179 208 172 149 201 163 242 182 138 238 196 188 228 227 225 253 150 184 230 242 240 257 248 260 235 232 181 175 164 163 164 164 167 168 169 170 176 173 170 171 175 181 182 202 211 228 237 211 251 272 289 299 305 304 304 303 304 300 292 287 283 280 279
202 188 183 161 311 273 232 249 134 228 230 192 206 242 212 80 131 118 82 203 148 168 190 179 192 199 177 160 239 179 194 192 191 215 191 208 240 228 220 33 236 252 246 248 251 252 248 269 259 214 178 167 158 159 161 160 162 164 166 168 165 167 172 174 175 190 197 204 198 216 224 236 247 275 292 298 298 297 299 300 303 298 298 292 286 284 283
188 173 282 288 252 192 220 230 206 232 34 180 205 165 91 62 40 39 67 263 237 131 106 151 216 276 231 182 215 180 224 177 242 156 192 227 224 122 237 239 236 224 231 239 244 249 261 263 269 83 128 145 150 154 156 157 158 159 164 159 161 164 164 171 174 188 180 192 207 231 245 255 271 283 291 292 296 301 300 299 297 298 295 293 292 287 282
205 22 289 230 225 184 208 216 327 330 203 238 125 97 48 32 255 196 167 215 276 215 198 185 216 174 223 158 260 236 225 185 226 215 194 254 247 244 229 234 239 233 225 240 244 260 283 301 41 122 136 146 150 152 154 156 159 160 157 158 160 162 168 172 179 176 179 195 226 245 255 254 268 284 289 291 297 300 301 301 304 303 298 294 290 286 282
338 196 235 264 281 254 259 46 241 232 165 172 174 180 188 217 228 191 148 190 213 219 201 236 271 245 294 135 228 219 226 175 224 198 177 222 222 208 189 232 226 235 219 227 260 273 282 89 106 125 141 148 149 151 151 157 157 159 157 159 159 161 165 173 174 172 183 213 241 244 252 268 281 283 292 299 301 307 314 311 306 300 299 295 293 291 287
224 202 215 242 241 217 230 279 243 243 179 178 193 206 192 227 237 189 147 206 195 194 196 183 295 262 260 223 240 253 273 167 220 222 225 221 225 230 231 246 235 229 232 205 231 262 138 129 135 138 144 143 146 146 151 149 150 153 156 154 152 159 167 171 168 178 197 225 238 252 260 271 277 289 302 308 313 309 303 297 299 299 297 293 289 287 285
222 284 270 271 285 3 158 229 216 216 199 197 205 188 194 225 236 176 163 230 179 209 211 250 177 208 221 215 247 237 224 182 226 223 231 233 222 236 235 240 246 233 250 281 341 99 119 136 147 142 141 142 143 145 144 144 147 149 149 144 152 156 159 168 176 193 207 220 220 248 265 277 289 305 305 303 303 304 302 303 304 304 300 297 292 287 284
221 228 240 199 231 259 273 309 300 286 310 347 285 154 207 252 218 148 158 236 224 254 298 322 260 238 213 221 221 262 48 212 242 239 236 229 208 237 239 262 270 307 20 39 74 102 115 121 128 139 144 142 142 140 139 140 142 148 149 154 155 155 160 168 173 200 217 217 231 246 269 283 295 299 298 294 298 301 308 311 312 307 302 300 297 294 286